THOR ABLESTAR DEB, 224

Orbit data source: Space-Track

THOR ABLESTAR DEB, 224 is space debris in LEO originally from a launch on Thu, 29 Jun 1961 UTC launched from the Air Force Eastern Test Range (AFETR). Debris objects in space refer to the collection of defunct objects orbiting the Earth. Examples of debris include non-operational satellites, rocket bodies, and fragments generated from explosions, collisions, or faulty payload assembly.

Loading next visibility...
Identifier
224, 1961-015BL
Orbit
LEO
Country
Flag of USUS
Related business
Manufacturer
Unknown
Mission
Spacecraft
Bus & Motor
Unknown
Mass
Unknown
Launch date (UTC)
1961-06-29 (65 years ago)
Launch vehicle
Unknown
Launch site
Air Force Eastern Test Range (AFETR)
Object type
Payload
Rocket body
Debris
Shape & HBR
Unknown shape, 0.2 m
Radar Cross Section
Medium (>0.1 m² and <1 m²)

Expand to show TLE details & history
Last TLE update: 18 hours ago

TLE from 18 hours ago
0 THOR ABLESTAR DEB
1 00224U 61015BL  26034.49104808  .00000469  00000-0  29612-3 0  9992
2 00224  66.7360 131.7426 0057782 127.9134 314.5109 14.11892272293642
Epoch: 2026-02-03T11:47Z
TLE epoch observation values (Epoch: 2026-02-03T11:47:06.554Z)
Latitude
65.56757°
Longitude
-108.43028°
Altitude
834.209 km
Speed
7.457 km/s
True Right ascension
13h 28m 04s
True Declination
65° 26' 21"
Sunlit
Object was in daylight at epoch
Visualization orbit readout
Latitude
Unknown
Longitude
Unknown
Altitude
Unknown
Speed
Unknown
Apparent Right ascension
Unknown
Apparent Declination
Unknown
Sunlit
N/A
Visualization observer readout
Local Sidereal Time
07:26:57
Azimuth
Unknown
Elevation
Unknown
Doppler factor
Unknown
Orbital elements
Apogee altitude
893.061 km
Perigee altitude
809.515 km
Semi-major axis
7,229.425 km
Eccentricity
0.00578
Inclination
66.736°
RAAN
131.7426°
Arg. of periapsis
127.9134°
True anomaly
314.03632°
Mean anomaly
314.5109°
Eccentric anomaly
314.27385°
Mean motion
3.53092 °/min
Orbital period
101.96 mins
BSTAR
0.00029612
Loading maneuver chart data...
Computing Atmospheric mass density...

Documentation

Showing up to 5 results
|